CAPE
15 0 481 473 63 434 498 857 536 613 272 188 53 0 0 0 0 0 0 0 0 2 19 32 83 153 218 187 90 172 186 78 60
0 0 26 484 164 590 949 981 696 706 499 359 254 124 145 34 0 7 95 170 59 7 27 93 190 330 175 199 129 132 171 166 107
0 0 4 21 142 1122 1549 1379 1136 777 584 513 404 407 180 112 50 59 166 195 253 219 142 101 222 142 26 78 36 70 229 189 137
0 0 647 1038 1183 1648 1642 1560 1388 1203 881 727 527 472 323 373 343 296 147 282 226 256 277 234 209 45 246 112 48 123 199 241 274
141 364 1598 1608 1692 1669 1588 1441 1382 1275 1058 926 789 679 637 573 564 562 518 276 3 16 379 786 415 17 193 335 231 226 286 284 556
893 1332 1590 1548 1573 1634 1548 1293 1343 1304 1169 1112 1032 820 803 794 829 856 802 471 9 363 881 988 997 408 216 421 408 387 376 365 383
1057 1220 1595 1626 1521 1517 1470 1288 1264 1265 1203 1085 1061 989 983 995 1007 1067 998 679 203 955 722 1056 844 616 327 361 347 358 488 754 714
1118 1108 1223 1643 1605 1454 1348 1323 1263 1189 1129 989 1036 1126 1209 1220 1134 1137 1087 893 621 92 482 216 23 0 0 0 0 0 0 211 337
963 1051 1066 1267 1509 1504 1461 1383 1293 1193 938 1051 1193 1213 1347 1239 1094 1250 1061 603 106 8 0 0 0 0 0 0 0 0 0 0 0
218 1005 1152 1131 1162 1063 1325 1435 1355 1288 1142 1116 1331 1261 1320 1201 1156 1282 639 208 84 7 0 0 0 0 0 0 0 0 0 0 0
0 898 1031 1077 1096 1000 978 1377 1413 1342 1211 1212 1395 1373 1320 1235 1279 1222 440 172 53 0 0 0 0 0 0 0 0 0 0 0 0
0 101 894 861 993 1017 900 1305 1386 1225 1340 1309 1454 1456 1364 1197 1161 848 405 175 14 0 0 0 0 0 0 0 0 0 0 0 0
30 482 773 805 857 965 1038 1222 1204 1196 1508 1402 1526 1515 1405 1107 861 746 487 269 37 0 0 0 0 0 0 0 0 0 0 0 0
820 691 817 894 935 1109 1179 1136 1066 1210 1493 1537 1490 1551 1310 846 633 546 310 49 14 0 0 0 0 0 0 0 0 0 0 0 0
1754 1923 967 947 1031 1109 1170 1192 1143 1194 1552 1555 1481 947 702 543 427 273 96 59 30 2 0 0 0 0 0 0 0 0 0 0 0
1025 1433 2053 954 997 1266 1361 1409 1288 1360 1485 1330 860 100 15 0 23 91 40 35 21 0 0 0 1 0 0 0 0 0 0 0 0
449 138 642 1453 1424 1280 1284 1407 1703 1607 1190 337 110 43 14 19 97 76 8 17 0 0 0 1 0 0 0 0 0 0 0 0 0
0 0 818 1181 1224 1085 1083 926 1073 717 711 410 184 149 2 18 9 0 0 3 2 0 0 0 0 0 0 0 1 0 0 0 0
0 0 0 12 687 903 697 417 322 422 532 300 408 245 93 58 71 17 0 0 2 0 0 0 0 0 0 0 0 0 0 0 0
0 0 0 0 1 2 195 655 413 306 302 299 382 333 264 194 100 10 0 0 0 0 0 0 0 0 0 0 0 0 0 0 0
CIN
-459 -0 -641 -666 -614 -538 -464 -283 -316 -285 -364 -374 -448 -0 -0 -0 -0 -0 -0 -0 -0 -127 -191 -190 -134 -114 -106 -135 -124 -60 -59 -122 -133
-0 -0 -731 -675 -710 -526 -393 -305 -321 -288 -298 -290 -289 -330 -289 -408 -9 -286 -112 -91 -135 -204 -209 -168 -113 -106 -121 -77 -58 -62 -48 -74 -100
-0 -0 -458 -857 -709 -440 -280 -244 -247 -298 -324 -298 -276 -227 -340 -411 -437 -275 -159 -131 -116 -127 -154 -176 -140 -157 -198 -91 -53 -54 -49 -48 -75
-0 -0 -597 -522 -477 -395 -318 -241 -230 -201 -233 -266 -294 -293 -323 -302 -333 -226 -232 -177 -176 -144 -144 -165 -160 -259 -80 -88 -94 -72 -29 -31 -57
-396 -586 -491 -471 -428 -406 -351 -328 -253 -208 -237 -231 -236 -274 -290 -271 -223 -190 -183 -245 -20 -60 -144 -102 -147 -345 -107 -57 -61 -74 -48 -48 -36
-417 -464 -504 -455 -457 -381 -335 -333 -273 -231 -240 -239 -229 -264 -257 -209 -164 -154 -164 -247 -94 -203 -102 -82 -68 -117 -141 -71 -67 -61 -70 -60 -67
-440 -437 -474 -440 -410 -372 -328 -346 -323 -292 -278 -278 -217 -191 -180 -172 -157 -162 -183 -222 -281 -114 -122 -70 -82 -93 -137 -125 -117 -105 -73 -48 -55
-386 -450 -496 -446 -388 -385 -375 -350 -330 -327 -313 -333 -254 -155 -116 -130 -148 -145 -150 -162 -177 -274 -172 -223 -63 -0 -0 -0 -0 -0 -53 -124 -88
-356 -420 -470 -480 -431 -394 -383 -375 -362 -332 -358 -308 -234 -163 -119 -148 -171 -135 -149 -216 -298 -329 -0 -0 -0 -0 -0 -0 -0 -0 -0 -0 -0
-414 -401 -443 -477 -477 -491 -426 -378 -363 -345 -334 -321 -242 -246 -181 -182 -165 -137 -230 -331 -364 -333 -0 -0 -0 -0 -0 -0 -0 -0 -0 -0 -0
-0 -400 -433 -489 -476 -472 -485 -393 -362 -332 -359 -343 -241 -231 -237 -219 -166 -162 -339 -410 -442 -0 -0 -0 -0 -0 -0 -0 -0 -0 -0 -0 -0
-0 -457 -450 -487 -483 -444 -496 -435 -406 -412 -376 -344 -274 -244 -228 -252 -251 -257 -343 -392 -470 -0 -0 -0 -0 -0 -0 -0 -0 -0 -0 -0 -0
-560 -508 -441 -502 -540 -481 -500 -453 -452 -428 -350 -345 -283 -274 -261 -271 -302 -315 -351 -338 -425 -0 -0 -0 -0 -0 -0 -0 -0 -0 -0 -0 -0
-509 -483 -494 -583 -568 -479 -463 -490 -531 -420 -362 -337 -335 -288 -266 -315 -308 -250 -257 -390 -434 -0 -0 -0 -0 -0 -0 -0 -0 -0 -0 -0 -0
-391 -412 -514 -563 -523 -488 -482 -462 -406 -416 -363 -346 -295 -311 -303 -259 -216 -168 -211 -295 -402 -293 -0 -0 -0 -0 -0 -0 -0 -0 -0 -0 -0
-447 -346 -239 -491 -484 -452 -415 -363 -356 -323 -319 -315 -362 -583 -574 -0 -126 -85 -165 -212 -316 -36 -0 -0 -0 -0 -0 -0 -0 -0 -0 -0 -0
-507 -622 -76 -208 -347 -392 -395 -388 -269 -269 -289 -609 -634 -389 -50 -31 -221 -160 -143 -221 -0 -0 -0 -0 -0 -0 -0 -0 -0 -0 -0 -0 -0
-0 -0 -176 -212 -320 -366 -323 -364 -345 -386 -356 -466 -520 -486 -253 -436 -432 -13 -0 -288 -258 -0 -0 -0 -0 -0 -0 -0 -0 -0 -0 -0 -0
-0 -0 -0 -10 -247 -413 -389 -479 -460 -408 -296 -431 -295 -335 -377 -364 -313 -366 -0 -0 -0 -0 -0 -0 -0 -0 -0 -0 -0 -0 -0 -0 -0
-0 -16 -0 -0 -17 -21 -451 -384 -364 -356 -339 -253 -238 -218 -173 -187 -251 -369 -0 -0 -0 -0 -0 -0 -0 -0 -0 -0 -0 -0 -0 -0 -0
Wind_Speed
12 11 11 10 10 9 10 10 9 11 12 11 11 10 10 8 7 4 4 5 4 4 4 4 4 5 6 5 4 4 4 3 4
13 13 10 11 9 9 9 11 12 12 12 9 11 11 9 9 7 6 5 6 5 4 4 4 6 5 3 4 4 3 3 4 5
12 10 7 9 9 9 9 10 9 10 10 13 14 13 10 7 7 6 7 5 6 6 6 6 5 5 5 5 5 4 3 2 4
10 12 9 9 10 9 10 8 8 9 9 10 10 10 7 6 6 7 5 5 5 6 5 5 5 6 6 5 5 5 3 2 3
7 9 10 11 11 10 9 8 7 8 7 8 8 7 6 6 5 6 6 6 6 6 6 5 7 6 5 5 4 4 4 3 2
6 9 11 10 10 11 11 10 9 9 9 8 6 5 5 5 5 5 6 6 6 5 4 5 5 7 7 5 5 4 4 4 3
7 10 12 10 8 9 9 9 8 7 7 7 6 6 6 6 7 7 6 6 5 4 5 5 4 4 5 5 4 3 3 4 3
8 7 10 12 12 10 9 8 7 7 7 8 7 7 6 7 6 6 5 6 6 5 5 5 6 6 6 6 5 3 3 3 4
9 12 14 15 14 13 12 12 11 9 8 8 8 8 9 6 7 7 7 7 7 7 6 7 7 6 6 6 3 5 8 6 5
13 15 15 15 16 15 14 14 14 14 11 8 10 11 8 8 8 8 8 8 8 8 8 7 6 6 5 5 4 4 3 5 4
12 11 12 14 14 14 14 13 13 11 9 10 10 9 10 10 10 10 9 9 8 7 7 8 7 6 6 6 3 3 5 5 3
16 14 14 15 15 16 13 14 13 12 10 11 10 11 11 12 12 10 10 10 9 6 6 5 5 5 7 7 5 5 5 5 5
9 9 8 10 11 10 11 12 12 13 13 12 13 13 13 10 10 13 14 12 9 4 7 9 7 6 5 6 5 3 5 5 4
4 4 6 7 7 13 14 11 11 14 14 16 16 11 8 7 5 5 6 7 5 6 5 7 5 6 5 5 5 3 3 4 4
11 8 2 8 8 6 6 7 10 12 15 10 8 10 10 8 6 3 2 9 8 8 9 8 7 6 5 4 4 6 6 6 3
11 11 9 1 7 8 6 8 6 7 4 10 12 10 10 12 12 5 4 8 9 8 9 8 8 7 6 4 4 4 6 4 6
12 13 14 5 7 6 3 4 7 6 12 14 16 15 12 5 5 7 6 6 6 7 8 6 6 6 6 4 4 4 3 3 2
9 17 11 7 6 6 2 2 1 4 11 14 15 13 14 14 13 14 11 8 5 5 3 6 9 7 6 7 6 6 8 8 4
3 4 10 32 7 8 3 5 3 4 5 5 10 13 11 11 11 9 10 9 5 7 5 7 7 9 6 3 4 11 12 10 10
11 9 14 19 3 4 3 3 1 1 4 5 9 11 10 7 9 9 10 9 8 6 3 10 4 6 7 8 8 11 12 12 10
Wind_Direction
230 227 214 198 195 173 184 182 172 169 176 173 177 190 195 193 177 180 199 196 183 206 213 222 237 226 227 179 172 209 201 180 183
221 228 203 194 183 180 179 184 184 175 170 171 183 193 192 194 184 188 199 201 199 202 209 226 227 210 206 161 162 136 203 183 194
220 218 170 177 176 171 171 174 172 164 165 181 190 195 196 191 172 184 209 199 208 207 208 207 191 195 210 190 187 168 72 185 184
199 193 164 158 167 157 156 155 157 162 166 168 184 189 181 177 169 194 208 206 217 219 209 198 186 177 188 181 182 149 145 225 192
216 149 155 153 160 150 150 154 164 171 166 175 192 182 159 186 187 186 200 213 211 201 202 179 178 179 174 185 185 170 170 254 214
159 143 141 151 143 164 167 172 175 174 176 182 171 164 166 168 203 195 205 203 204 182 193 183 177 180 184 200 192 199 187 219 252
186 170 159 156 163 167 176 179 175 179 177 162 161 176 188 186 206 204 190 187 177 183 196 167 144 143 141 140 136 155 183 203 190
180 164 164 178 178 179 173 176 184 193 190 164 162 180 189 207 187 179 168 160 159 155 143 133 122 116 104 109 106 98 92 137 151
200 199 186 185 182 178 183 186 188 189 191 180 165 180 196 186 170 166 165 156 155 147 136 128 128 130 130 118 90 120 135 137 140
205 204 194 187 186 183 189 192 187 189 187 182 181 179 181 178 174 166 166 164 154 152 152 139 136 128 117 105 87 65 79 123 153
205 195 183 196 191 186 193 193 194 187 167 176 184 188 181 175 174 175 169 165 162 144 146 149 148 139 133 125 91 56 90 106 129
209 198 192 192 189 190 180 183 185 173 168 176 179 187 190 187 172 171 167 173 166 148 140 140 147 153 148 145 147 109 97 90 122
215 193 186 179 174 175 184 185 174 168 177 176 189 191 189 178 176 178 178 173 166 168 161 156 148 143 146 150 145 119 124 123 134
333 215 163 132 158 177 187 177 166 180 180 191 197 181 162 138 129 177 164 141 147 152 145 124 136 136 139 148 155 141 98 160 150
24 12 71 131 129 145 156 165 177 190 193 187 126 113 108 100 98 90 167 174 162 149 145 151 156 142 153 170 165 154 141 150 162
9 7 360 84 123 123 129 146 175 196 130 104 101 97 66 55 17 348 200 205 180 173 162 169 171 170 165 170 161 135 126 163 157
18 19 328 357 73 85 120 137 172 145 119 120 122 115 108 51 188 257 256 210 210 191 178 168 167 174 170 156 154 153 146 140 133
27 15 333 305 149 107 113 101 119 123 150 150 150 163 183 178 203 187 203 201 206 205 205 196 169 187 169 160 177 196 172 166 164
94 56 4 312 303 105 157 141 152 145 176 168 159 167 189 191 205 200 190 169 156 39 102 135 120 140 148 203 161 163 177 176 167
1 142 178 246 334 29 265 86 113 189 139 157 166 174 183 199 195 189 173 170 171 152 52 69 86 148 162 178 184 189 182 158 137